EW1979 Weather Reports


time (UTC)temp
C
wind
direction
speed
KPH
gust
KPH
rain 1hr
cm
rain 24hr
cm
rain mn
cm
humidity
%
barometer
mb
20260506050109 23 153 0.0 0.0 0.00 0.00 0.00 41 1005.1
20260506044551 23 144 0.0 0.0 0.00 0.00 0.00 41 1005.5
20260506043043 23 146 0.0 0.0 0.00 0.00 0.00 44 1005.1
20260506041538 23 130 0.0 0.0 0.00 0.00 0.00 48 1005.1
20260506040032 23 152 0.0 0.0 0.00 0.00 0.00 57 1004.9
20260506034529 23 152 0.0 0.0 0.00 0.00 0.00 63 1004.7
20260506033025 23 152 0.0 0.0 0.00 0.00 0.00 68 1004.6
20260506031520 23 152 0.0 0.0 0.00 0.00 0.00 71 1004.4
20260506030021 23 153 0.0 0.0 0.00 0.00 0.00 74 1004.1
20260506024530 23 153 0.0 0.0 0.00 0.00 0.00 76 1004.0
20260506023006 23 165 0.0 0.0 0.00 0.00 0.00 77 1003.6
20260506021502 23 171 0.0 0.0 0.00 0.00 0.00 78 1003.4
20260506020057 24 171 0.0 0.0 0.00 0.00 0.00 78 1003.1
20260506014554 24 171 0.0 0.0 0.00 0.00 0.00 78 1002.9
20260506013102 25 180 0.0 0.0 0.00 0.00 0.00 78 1002.7
20260506011602 25 183 0.0 0.0 0.00 0.00 0.00 77 1002.4
20260506010045 25 192 0.0 0.0 0.00 0.00 0.00 76 1002.2
20260506004540 26 165 0.0 0.0 0.00 0.00 0.00 75 1002.5
20260506003037 26 165 0.0 0.0 0.00 0.00 0.00 74 1002.5
20260506001538 26 165 0.0 0.0 0.00 0.00 0.00 73 1002.5
20260506000032 26 173 0.0 0.0 0.00 0.00 0.00 71 1002.6
20260505234523 26 181 0.0 0.0 0.00 0.00 0.00 70 1002.4
20260505233019 27 161 0.0 0.0 0.00 0.00 0.00 69 1002.4
20260505231514 26 186 0.0 0.0 0.00 0.00 0.00 71 1002.5
20260505230010 26 165 0.0 0.0 0.00 0.00 0.00 71 1002.3
20260505224505 27 178 0.0 0.0 0.00 0.00 0.00 70 1002.3
20260505223001 27 197 0.0 0.0 0.00 0.00 0.00 70 1002.2
20260505221601 27 200 0.0 0.0 0.00 0.00 0.00 69 1002.2
20260505220053 27 177 0.0 0.0 0.00 0.00 0.00 71 1002.2
20260505214612 27 198 0.0 0.0 0.00 0.00 0.00 70 1002.2
20260505213046 27 195 0.0 0.0 0.00 0.00 0.00 70 1002.2
20260505211541 27 240 0.0 0.0 0.00 0.00 0.00 69 1002.6
20260505210038 27 194 0.0 0.0 0.00 0.00 0.00 71 1002.8
20260505204535 27 160 0.0 0.0 0.00 0.00 0.00 69 1003.1
20260505203028 27 206 0.0 0.0 0.00 0.00 0.00 70 1003.3
20260505201524 26 206 0.0 0.0 0.00 0.00 0.00 71 1003.5
20260505200020 26 178 0.0 0.0 0.00 0.00 0.00 73 1003.7
20260505194515 26 183 0.0 0.0 0.00 0.00 0.00 72 1004.0
20260505193012 25 175 0.0 0.0 0.00 0.00 0.00 72 1004.1
20260505191506 25 210 0.0 0.0 0.00 0.00 0.00 73 1004.2
20260505190002 25 198 0.0 0.0 0.00 0.00 0.00 71 1004.3
20260505184557 24 194 0.0 0.0 0.00 0.00 0.00 68 1004.8
20260505183104 23 198 0.0 0.0 0.00 0.00 0.00 15 1005.8
20260505181551 22 215 0.0 0.0 0.00 0.00 0.00 100 1006.0
20260505180050 21 202 0.0 0.0 0.00 0.00 0.00 100 1006.1
20260505174550 21 206 0.0 0.0 0.00 0.00 0.00 100 1006.4
20260505173036 20 208 0.0 0.0 0.00 0.00 0.00 100 1006.4
20260505171531 20 197 0.0 0.0 0.00 0.00 0.00 100 1006.3
20260505170028 20 196 0.0 0.0 0.00 0.00 0.00 100 1006.6
20260505164522 20 200 0.0 0.0 0.00 0.00 0.00 100 1006.2
20260505163020 20 205 0.0 0.0 0.00 0.00 0.00 100 1006.2
20260505161517 20 195 0.0 0.0 0.00 0.00 0.00 100 1006.3
20260505153109 19 219 0.0 0.0 0.00 0.00 0.00 100 1006.1
20260505151607 19 186 0.0 0.0 0.00 0.00 0.00 100 1006.2
20260505124609 18 187 0.0 0.0 0.00 0.00 0.00 100 1005.1
20260505121502 18 192 0.0 0.0 0.00 0.00 0.00 100 1004.9
20260505114504 18 200 0.0 0.0 0.00 0.00 0.00 100 1004.3
20260505113008 18 209 0.0 0.0 0.00 0.00 0.00 100 1004.2
20260505100037 18 180 0.0 0.0 0.00 0.00 0.00 3 1004.3
20260505094507 18 196 0.0 0.0 0.00 0.00 0.00 6 1004.4
20260505093003 18 178 0.0 0.0 0.00 0.00 0.00 8 1004.5
20260505084603 19 169 0.0 0.0 0.00 0.00 0.00 15 1004.5
20260505083008 19 198 0.0 0.0 0.00 0.00 0.00 18 1004.6
20260505081635 19 194 0.0 0.0 0.00 0.00 0.00 21 1004.9
20260505073004 19 182 0.0 0.0 0.00 0.00 0.00 27 1005.4
20260505071510 19 167 0.0 0.0 0.00 0.00 0.00 28 1005.6
20260505070003 19 161 0.0 0.0 0.00 0.00 0.00 29 1005.7
20260505064508 19 206 0.0 0.0 0.00 0.00 0.00 30 1005.9
20260505061502 19 204 0.0 0.0 0.00 0.00 0.00 36 1006.2
20260505060007 19 187 0.0 0.0 0.00 0.00 0.00 41 1006.1